Presure
162 163 172 170 167 159 161 172 191 192 167 229 246 254 329 304 302 299 286 313 318 365 345 351 355 372 383 383 321 325 327 218 143 190 204 210 221 207 194 200 215 192 200 200 142 151 185
161 161 162 160 173 183 161 175 186 188 143 136 227 139 262 311 303 310 287 282 297 336 471 364 363 371 322 303 245 300 295 198 226 164 218 209 215 207 190 181 209 197 188 204 139 160 142
166 156 159 159 171 186 155 166 188 191 182 135 209 253 249 322 302 310 287 283 270 307 375 325 313 344 296 284 285 300 134 305 153 192 230 172 218 210 200 187 188 200 205 135 202 133 133
154 149 135 181 178 164 169 169 164 187 179 132 218 211 252 253 311 310 317 279 288 310 300 296 288 297 275 275 293 197 305 106 138 225 154 202 215 205 207 187 183 184 200 203 194 184 181
174 164 164 164 183 170 156 168 165 190 186 187 205 205 225 233 302 301 289 304 282 279 310 262 308 287 287 273 280 281 270 139 122 127 164 223 210 197 206 208 188 183 193 199 203 202 171
160 147 134 168 176 179 162 160 164 190 197 191 182 214 225 230 238 323 304 281 301 277 267 287 292 287 296 282 229 283 298 230 125 143 152 156 223 210 199 198 201 199 193 196 170 187 203
152 177 162 169 152 148 172 153 163 182 200 179 138 187 136 224 224 239 324 305 296 298 285 269 347 286 134 287 297 269 130 171 201 145 303 274 219 214 208 198 198 206 185 204 203 195 189
152 153 174 167 172 174 173 156 186 183 181 176 183 207 221 202 231 234 243 321 301 302 250 167 275 293 300 138 247 260 123 122 229 285 371 120 162 208 214 207 195 190 189 183 188 198 196
191 168 172 176 160 173 163 178 179 180 179 202 183 181 175 168 219 232 229 242 321 304 306 151 286 271 275 294 302 260 121 133 343 327 136 170 179 214 221 183 197 199 194 189 194 191 186
215 201 178 176 164 173 148 184 161 186 187 159 183 174 204 169 153 213 224 227 243 313 293 286 142 144 281 288 306 286 115 152 291 328 289 150 153 207 207 203 206 216 197 193 186 191 193
243 228 181 135 170 177 170 173 189 178 198 163 192 183 185 195 208 171 238 239 226 237 322 313 175 243 129 288 291 295 149 284 297 175 305 310 206 218 159 210 208 216 212 197 195 183 186
127 252 177 180 153 176 151 152 188 158 190 182 172 184 183 187 182 162 209 221 226 233 236 314 315 339 200 280 285 285 228 284 290 330 335 151 146 158 230 199 191 212 214 203 200 198 190
172 198 177 208 185 179 165 191 174 189 144 158 178 171 178 190 197 178 206 222 179 221 231 238 267 224 170 304 216 268 283 252 289 287 195 225 157 175 148 212 196 208 207 210 193 204 205
156 181 257 195 182 174 153 148 172 177 190 184 156 173 183 172 180 186 181 150 218 219 232 220 235 240 169 155 180 281 291 294 292 293 303 148 258 259 234 147 165 145 156 160 184 171 150
168 153 214 247 143 160 164 175 183 166 180 182 177 188 163 176 193 188 184 192 198 219 227 226 241 225 246 260 172 327 318 147 139 135 189 139 283 172 264 235 160 172 150 180 148 152 204
148 151 154 169 168 184 184 165 171 155 173 176 176 179 172 192 171 173 179 184 189 196 201 218 222 205 222 244 233 210 284 294 278 317 319 158 277 301 295 296 141 291 127 289 236 155 272
163 184 197 183 176 151 167 185 163 177 184 178 169 176 147 150 189 174 175 186 185 179 167 188 202 201 222 231 237 233 239 216 189 239 206 246 260 246 244 226 241 271 269 266 191 251 247
181 176 172 171 181 161 159 165 129 151 163 172 169 173 165 175 148 181 180 178 179 193 172 167 175 179 205 199 218 228 234 217 222 224 196 220 195 203 223 196 194 208 206 217 213 213 231
198 176 182 188 175 153 189 186 131 152 142 170 167 157 147 170 175 158 171 187 191 182 192 187 184 181 179 196 202 197 203 211 211 221 226 233 233 234 231 210 210 220 208 209 207 191 167
164 192 145 178 175 171 171 169 157 146 170 140 171 175 159 147 160 162 146 145 177 190 179 177 188 187 173 196 185 205 190 175 190 209 196 189 203 211 198 203 213 212 216 223 223 208 207
158 146 125 181 159 143 173 176 165 170 144 174 167 156 173 177 155 175 174 152 143 166 183 163 176 190 193 182 173 182 174 190 181 177 184 164 179 189 206 207 211 202 190 188 189 207 203
178 172 177 187 165 177 168 152 158 147 173 171 171 174 178 163 169 156 164 179 148 176 188 179 143 177 190 177 189 153 209 179 170 188 205 175 184 202 183 204 182 211 193 194 182 182 182
188 177 153 178 174 141 141 184 155 161 170 168 174 171 151 157 161 176 172 149 172 154 142 146 139 187 182 189 191 161 185 167 169 194 195 201 170 182 199 190 204 188 211 199 206 186 204
186 194 177 179 173 179 160 165 148 157 159 171 160 170 174 168 178 165 167 149 167 162 170 179 155 182 166 142 182 174 167 189 177 173 163 172 202 157 180 184 203 182 181 185 196 198 191
179 195 178 195 177 181 164 178 187 186 181 152 173 164 162 171 144 159 140 141 178 167 171 175 178 175 169 151 183 178 185 172 166 190 189 182 176 191 158 166 147 174 195 172 170 193 170
159 184 123 193 162 189 200 172 170 183 171 174 184 181 175 177 177 170 158 161 170 174 178 170 160 138 176 173 167 175 165 166 176 186 178 181 151 184 198 193 172 167 195 159 185 171 169
173 161 182 149 186 186 175 200 173 164 169 182 164 174 186 170 159 168 177 176 160 166 176 170 173 172 172 161 165 168 165 182 184 186 171 190 189 170 166 200 172 180 202 177 154 188 177
188 175 178 169 162 175 187 166 173 153 155 167 182 162 136 154 169 173 141 179 176 174 182 178 162 167 180 178 182 180 179 159 182 174 165 184 181 179 186 194 187 169 184 157 197 187 195
184 174 186 182 184 186 180 196 184 175 196 173 171 190 167 176 150 166 179 168 168 168 169 170 172 174 141 176 181 165 172 172 182 178 186 176 180 183 189 174 178 204 195 189 198 193 181
Wind_Speed
26 30 32 39 42 42 48 58 68 73 52 83 94 99 51 57 55 48 53 56 58 31 13 16 26 36 43 54 51 48 49 46 35 76 101 100 97 94 84 87 85 79 75 78 72 70 72
24 30 32 35 43 44 45 54 66 69 37 33 84 34 105 55 54 44 48 54 56 43 20 19 31 55 69 60 47 59 71 49 66 51 103 96 94 94 83 66 80 78 79 75 73 72 69
26 27 31 35 43 45 42 51 62 68 66 31 79 99 97 52 59 49 43 50 45 54 31 64 62 69 65 56 56 59 32 57 42 69 107 54 99 94 87 78 77 75 76 74 73 71 71
21 25 26 37 40 40 46 52 50 65 64 29 82 78 96 101 57 52 41 42 44 46 46 40 52 57 53 51 44 33 44 20 45 51 53 79 90 85 88 80 73 70 74 73 72 68 68
23 25 29 33 39 39 41 51 51 61 65 69 78 75 86 89 66 58 58 35 38 40 32 19 48 53 53 57 55 58 62 43 34 44 46 98 90 83 88 86 73 61 68 70 70 67 71
29 33 28 32 38 39 40 46 52 58 61 66 61 78 83 87 90 47 52 56 23 33 34 22 17 34 44 45 40 48 44 47 24 49 44 42 97 89 84 81 80 76 66 69 50 59 64
30 22 32 32 33 36 40 42 51 56 60 61 32 67 33 82 82 88 42 48 51 28 17 27 23 23 2 33 41 45 13 49 35 48 83 99 88 85 84 72 72 74 56 67 67 61 56
26 31 25 32 33 34 37 40 46 51 53 58 62 72 77 65 84 83 88 47 50 46 21 21 26 21 16 18 23 39 23 18 48 48 54 34 48 78 84 78 72 65 61 54 55 60 57
19 24 26 26 33 34 34 39 41 46 50 57 57 60 53 51 76 81 82 88 47 48 41 8 24 25 22 8 23 29 31 22 23 42 37 45 47 79 81 62 70 72 65 58 59 53 47
30 22 20 22 31 33 34 35 37 43 42 45 51 54 70 43 37 73 76 79 82 50 40 29 8 8 24 22 18 17 19 24 30 41 45 37 44 70 67 65 68 77 67 55 44 52 53
25 23 22 30 24 29 30 31 35 35 43 43 49 50 54 65 74 45 79 80 74 81 49 47 13 23 15 27 25 18 24 15 23 30 45 57 62 81 36 73 68 74 68 56 54 38 42
23 25 21 20 30 24 30 33 35 37 40 36 42 46 50 54 55 37 67 72 74 75 76 58 46 30 12 27 24 22 16 16 20 31 38 41 37 38 80 47 60 65 64 49 47 47 38
24 26 21 20 18 20 23 27 27 32 27 40 33 41 44 50 58 52 64 71 48 66 70 77 61 28 16 19 23 19 15 14 18 25 28 50 42 50 44 57 54 58 55 60 34 55 63
24 24 24 20 20 18 31 30 23 27 31 31 41 35 39 41 45 49 50 24 66 64 69 62 74 64 19 16 21 14 15 12 14 25 36 30 58 66 69 43 45 40 46 46 54 42 46
23 24 23 21 28 25 25 21 23 25 27 28 30 34 35 33 45 45 44 54 60 63 67 66 70 66 62 57 11 23 18 15 12 14 19 13 45 39 59 56 39 45 41 50 42 36 74
18 24 25 27 25 22 20 22 19 28 20 22 25 28 26 34 32 34 39 41 48 52 58 65 63 49 59 57 47 27 45 30 33 19 16 20 20 29 30 32 36 35 26 34 37 46 37
31 19 17 20 25 25 21 21 21 19 21 20 19 22 24 33 30 28 30 36 37 36 32 43 50 44 57 57 54 44 43 27 22 28 16 22 22 17 16 13 14 17 17 17 30 19 22
28 28 30 26 21 27 26 23 27 27 24 18 17 18 16 23 32 25 25 26 25 33 32 29 31 29 49 38 54 54 48 37 37 35 11 24 13 12 10 6 8 5 11 13 16 19 22
28 32 26 21 27 29 25 25 26 26 30 23 20 21 17 18 21 24 23 27 29 21 29 24 25 26 25 38 39 31 35 45 39 46 45 41 35 29 22 11 8 7 4 3 5 12 27
33 31 33 29 30 33 30 26 30 27 27 30 23 22 24 26 18 19 29 19 21 25 18 15 21 19 20 30 23 36 23 12 15 36 22 13 28 32 15 17 22 21 23 23 19 10 11
37 36 34 34 34 31 34 29 27 30 31 32 30 28 25 24 24 25 20 24 29 23 17 18 20 16 22 12 18 10 13 18 10 9 7 9 1 7 26 22 23 15 2 7 9 32 24
47 46 39 38 39 35 36 37 35 34 32 33 34 31 30 21 24 25 22 30 26 18 24 15 26 13 22 7 13 18 26 9 18 6 21 14 3 11 5 17 11 25 5 12 20 21 22
49 50 43 40 44 41 37 37 37 38 38 37 37 36 28 32 26 31 30 28 29 25 32 25 27 26 18 20 14 27 6 25 24 8 14 21 28 12 16 6 24 10 31 9 24 19 30
54 51 54 50 43 46 44 44 38 38 39 40 36 38 39 37 40 32 31 31 28 24 26 34 35 29 14 25 16 17 23 13 20 25 21 22 27 28 23 16 22 23 23 24 22 30 25
58 54 53 51 54 51 52 48 47 46 45 38 46 43 42 43 36 36 35 37 40 37 36 40 36 42 37 40 30 27 31 18 26 27 21 25 27 29 38 31 30 36 33 38 39 33 39
68 60 48 56 60 53 55 51 56 53 53 49 48 47 48 51 50 46 38 39 45 46 47 39 37 35 39 24 21 46 23 25 25 37 24 29 38 30 39 20 31 47 32 41 32 47 49
73 73 67 63 61 61 65 58 61 48 59 56 58 51 53 51 42 47 53 53 41 43 50 45 45 38 37 26 31 25 27 45 50 50 28 51 46 41 41 40 35 38 49 47 38 41 54
73 76 76 80 75 72 67 71 55 52 50 60 61 55 48 54 51 51 45 57 57 56 62 57 43 47 54 54 55 55 56 37 53 42 39 57 56 40 36 44 49 42 42 55 51 59 61
79 82 78 80 79 74 75 70 73 76 67 71 70 68 63 67 49 56 58 54 54 52 57 58 57 57 47 56 62 39 57 56 63 62 63 48 53 49 46 41 38 67 51 46 64 61 46
Wind_Direction
318 327 324 331 347 348 345 343 343 346 357 6 14 17 9 16 19 20 21 25 24 35 39 135 148 158 150 154 150 168 185 204 209 212 215 214 216 218 224 224 227 226 231 231 225 227 235
326 331 341 347 337 340 345 349 346 351 351 347 12 350 20 16 21 22 23 25 31 29 62 121 139 135 132 147 170 182 198 204 209 215 212 214 211 214 224 227 224 226 228 231 226 231 227
320 341 342 347 338 338 351 352 351 354 3 353 11 20 22 20 23 27 29 33 38 40 58 110 112 127 148 162 178 189 212 196 204 212 210 214 210 213 218 226 225 226 230 228 234 229 231
340 345 2 327 333 349 345 348 358 354 2 356 11 15 22 25 24 31 31 36 44 47 112 105 126 132 150 160 161 195 187 227 207 201 204 215 211 212 215 223 227 227 226 231 233 237 238
313 332 337 342 333 345 352 348 357 0 360 7 12 13 21 25 30 30 33 40 48 45 93 74 143 149 148 172 177 186 196 202 210 218 208 207 211 217 215 218 229 231 229 230 235 237 237
335 340 5 337 336 342 353 352 353 2 8 9 10 17 19 25 28 33 34 38 58 50 47 76 160 163 157 171 186 179 174 187 252 207 203 212 207 210 216 220 223 226 230 232 230 240 241
337 303 333 333 348 1 350 356 352 359 15 4 12 14 11 24 28 31 38 37 43 54 59 52 157 190 221 189 167 198 216 204 219 200 193 196 208 211 214 221 224 224 232 231 235 239 244
333 336 314 330 332 343 346 354 1 1 3 2 6 22 24 24 29 31 34 41 42 44 54 66 57 73 190 180 188 197 205 204 210 195 184 214 207 213 214 217 223 229 231 234 238 239 243
286 310 319 321 338 340 351 357 3 0 2 22 7 9 14 19 26 32 35 36 41 46 48 50 94 68 80 116 206 219 212 226 177 192 207 200 203 213 214 218 221 225 229 233 238 245 250
289 288 307 316 331 334 350 354 350 7 10 5 11 10 28 24 20 30 34 39 38 45 54 60 59 33 74 84 147 178 200 225 212 177 189 197 209 211 215 221 223 225 230 235 242 246 251
293 277 308 345 327 329 346 356 2 8 12 357 23 15 12 27 27 31 36 38 41 41 49 56 56 73 149 69 88 131 220 150 185 203 185 191 202 212 203 219 224 226 231 236 244 248 256
340 279 312 319 322 327 336 344 357 346 10 12 2 19 20 19 17 27 32 34 39 40 42 53 55 70 100 76 71 107 139 135 169 161 182 209 212 202 216 225 227 229 234 236 240 243 256
305 306 313 305 319 324 332 336 355 3 11 351 11 3 12 26 32 17 30 37 33 39 42 44 51 57 87 88 100 91 133 150 154 174 198 198 210 209 220 224 230 236 242 244 239 257 260
301 300 298 302 316 320 322 338 347 356 5 12 346 22 24 9 18 23 19 27 40 38 41 47 46 45 71 82 93 95 109 144 157 178 189 221 201 209 216 232 221 242 230 231 250 232 252
280 296 326 306 322 310 319 327 341 342 359 11 12 14 4 11 28 27 22 34 34 43 46 44 48 50 48 61 90 89 102 175 194 203 205 222 206 229 220 222 232 237 245 247 246 244 258
303 303 293 307 303 308 311 312 324 326 354 359 9 9 6 26 6 12 19 27 35 36 41 46 48 53 54 53 55 67 74 89 90 115 153 222 207 215 222 228 229 239 234 242 243 250 253
279 269 306 289 292 302 303 310 309 326 336 351 350 360 352 347 21 11 18 33 33 28 22 38 44 47 53 58 60 60 59 72 120 75 110 101 118 140 155 188 198 196 209 217 244 235 241
266 267 274 275 282 295 297 293 331 311 313 324 334 348 344 359 343 18 16 26 25 41 7 13 21 31 46 48 57 58 61 76 72 76 101 83 133 132 62 173 207 284 274 270 272 274 269
279 262 266 269 271 290 302 289 321 303 316 308 312 315 341 345 349 353 352 14 22 30 35 47 40 29 30 47 54 57 65 63 68 64 62 61 59 54 49 83 89 76 149 174 218 249 260
277 267 281 265 270 274 279 283 289 306 298 311 307 316 309 316 318 318 332 342 2 14 11 10 39 38 2 44 44 49 49 34 72 72 76 99 64 60 91 71 55 49 43 33 19 340 324
273 277 284 265 276 285 273 272 282 282 299 294 296 298 304 312 295 324 329 311 326 344 4 329 352 12 9 23 354 43 359 61 31 11 36 339 314 81 54 50 52 48 286 243 265 24 16
258 267 267 260 277 266 269 285 286 289 279 286 290 294 297 298 301 291 309 320 303 331 334 342 327 334 352 300 351 330 14 310 320 95 27 309 303 64 259 19 268 20 321 332 284 285 291
257 260 263 262 260 273 275 259 278 279 279 285 281 288 281 297 294 302 302 291 311 296 310 316 319 331 325 340 334 309 305 305 300 1 346 358 302 262 18 323 1 275 355 340 359 283 351
260 256 256 256 270 262 269 267 278 281 275 272 280 281 282 288 290 290 290 282 295 287 301 311 308 320 283 310 314 300 319 324 299 278 281 292 338 300 273 295 348 307 273 309 329 334 303
255 257 264 259 257 256 274 267 263 264 263 279 269 278 286 282 280 284 286 297 294 292 300 301 305 309 309 302 309 307 316 272 270 316 313 279 272 308 294 268 277 287 314 284 286 324 293
270 255 264 256 272 259 267 258 269 263 268 268 267 265 272 276 279 284 282 291 294 296 295 298 301 301 300 293 290 304 272 284 299 312 287 304 290 303 321 298 298 281 309 291 286 278 283
253 267 252 262 253 254 261 266 263 265 273 264 281 271 267 278 275 277 279 282 286 290 289 295 288 295 297 270 284 294 283 308 307 308 279 310 308 270 292 319 276 299 308 288 282 304 280
247 255 252 264 273 258 255 273 259 281 276 275 263 284 264 269 274 279 281 273 276 281 281 285 280 289 292 293 292 297 301 274 302 300 285 303 298 289 303 301 295 261 287 280 311 305 314
247 251 253 253 252 249 255 255 254 264 257 265 273 263 277 270 270 272 271 274 277 280 281 284 286 287 284 290 292 287 292 294 294 295 296 297 293 299 309 267 270 306 310 302 313 311 271